Location: Sungai Buloh
(3.1000°N, 113.0000°E)
Time: 16:53:04
(UTC+00:00)

USA 234 - Pass Details

Date: 12 January 2026
Orbit: 1102 x 1106 km, 123.0° (Epoch: 4 January)

Event Time Altitude Azimuth Distance (km) Brightness Sun altitude
Rises 21:54:40 0° 10° (N) 3,908 6.0 -10.9°
Reaches altitude 10° 21:57:50 10° 354° (N) 2,952 5.3 -10.1°
Maximum altitude 22:02:23 20° 309° (NW) 2,272 4.4 -9.1°
Drops below altitude 10° 22:06:57 10° 264° (W) 2,955 5.0 -8.0°
Sets 22:10:09 0° 248° (WSW) 3,914 5.7 -7.3°
